OBJECT AP (43795 NORAD) Tracking and Keplerian Element Data

This shows tracking and keplerian element data for the satellite.

Feedback or suggestion? Click here.




ElementValue
Catalog43795
NameOBJECT AP
Epoch Orbit561
Epoch Day10.41906078
Epoch Year2019
RAAN84.2066
Inclination97.7589
Eccentricity0.0014933
Argument of Perigee140.1944
Mean Anonmoly220.0375
Mean Motion14.95599818
Decay Rate7.43E-06
L11 43795U 18099AP 19010.41906078 .00000743 00000-0 71996-4 0 9991
L22 43795 97.7589 84.2066 0014933 140.1944 220.0375 14.95599818 5614

Live tracking and technical data element details for OBJECT AP (NORAD 43795). OBJECT AP can be tracked NOW for your location showing map with azimuth and elevation plus other details from your city location.

Track the satellite on the map from your city or location and see movement details for azimuth, elevation, latitude, longitude, range, height, and movement on the map or in text.







IsCatalogInMostPopularTable: catalog: 43795, numindb: 85
Update: records affected: 1



GetName: 43795 OBJECT AP

Hit Count: updated at: Tue, 17 Sep 2019 21:54:25 GMT